RH
16 15 16 17 18 19 17 16 15 15 16 16 17 17 18 18 20 20 20 21 22 24 27 29 29 32 38 43 48 53 57 61 64 66 66 63 62 64 65 66 66 65 65 67 69 72 77 82 86 88 90 91 92 95 95 95 95 96 94 90 87 83 78 71 67 64 61 57 52 53 54 54 54 60 62 53 41 32 24 18 13 15 19 20 22 26 30 32
15 14 15 16 17 17 15 14 14 15 15 15 16 17 17 18 19 19 19 19 22 24 26 27 29 33 41 49 56 63 69 71 72 67 62 61 65 68 70 70 71 74 77 82 85 89 92 93 94 94 95 96 97 97 97 97 97 98 93 87 81 75 71 66 62 59 58 57 54 56 63 67 64 59 51 37 29 24 21 17 16 22 25 23 24 27 30 31
13 14 16 17 17 14 13 13 15 16 16 16 18 18 20 20 19 19 19 20 23 26 27 27 29 32 38 48 56 64 69 69 67 64 64 69 75 78 81 83 87 92 94 96 97 97 97 96 96 96 97 98 97 97 100 99 96 93 85 78 72 67 64 59 58 59 60 63 65 67 71 69 57 43 32 25 26 25 20 18 22 26 27 25 25 26 26 26
12 16 18 20 18 14 14 16 18 18 17 17 19 20 23 24 21 21 22 22 25 26 25 30 37 44 55 65 68 66 63 65 69 74 82 89 94 96 98 99 101 103 102 100 100 100 99 98 98 97 98 99 99 99 99 93 88 82 74 69 65 62 60 56 60 64 64 70 74 72 63 50 36 26 23 23 26 24 20 21 23 24 23 21 20 22 25 24
13 20 21 20 17 16 20 21 21 21 20 22 23 24 29 30 24 27 30 29 33 39 46 61 71 79 84 80 75 72 71 77 84 91 99 102 103 103 103 103 102 102 101 100 101 100 100 99 99 98 99 100 97 93 89 84 79 74 65 63 62 62 64 63 67 71 71 74 69 55 41 29 24 24 24 22 21 23 24 21 20 20 19 19 19 20 23 24
16 21 22 20 19 25 29 25 24 22 22 25 26 28 36 38 31 32 39 46 60 73 87 100 103 104 101 87 81 84 89 95 97 100 104 103 102 101 101 100 100 100 100 101 100 99 99 98 97 96 94 91 87 83 81 75 70 67 63 63 66 69 74 74 74 74 70 60 45 33 27 24 24 26 25 21 21 25 26 20 18 20 19 19 18 18 20 22
19 22 22 22 26 35 35 29 28 28 29 31 32 35 42 43 37 37 51 72 90 97 98 103 105 104 103 97 94 95 99 102 101 101 102 102 102 101 101 101 100 100 100 99 98 97 95 94 91 88 85 81 79 75 71 67 64 67 71 73 74 76 79 78 73 65 51 38 30 28 28 25 25 29 28 24 25 27 25 22 21 21 20 19 17 17 17 19
19 23 25 28 35 42 39 33 33 35 39 39 39 41 44 43 41 44 59 77 87 89 87 91 97 98 99 101 99 99 101 102 101 101 101 102 103 103 103 102 101 101 101 99 96 93 90 87 83 79 77 72 69 66 64 69 73 77 81 81 78 78 77 71 59 46 36 32 32 32 29 26 28 32 32 29 28 27 26 25 24 23 21 20 19 18 18 17
20 27 34 39 45 48 45 42 41 44 48 48 47 48 49 52 56 60 68 79 88 94 95 95 98 98 102 104 101 102 101 99 101 103 104 105 103 103 104 104 105 105 101 95 89 84 79 76 72 69 67 64 64 69 75 81 85 85 85 83 79 76 68 53 41 36 37 38 36 35 31 29 32 36 36 34 32 30 29 28 26 24 23 22 22 21 21 20
23 33 42 48 52 54 52 52 52 56 61 64 64 62 62 65 72 80 87 95 103 107 106 104 104 101 101 101 101 103 101 101 103 104 106 105 103 104 105 105 103 97 88 80 73 68 65 65 65 66 68 71 77 84 87 87 86 86 85 81 74 63 48 38 38 40 43 43 41 40 37 35 37 38 38 36 34 32 30 29 27 25 25 24 25 26 26 26
28 39 49 55 57 56 56 56 57 65 70 73 78 77 78 82 87 93 98 101 104 104 103 103 104 102 99 100 103 105 103 105 106 106 107 105 104 105 101 96 88 79 71 66 62 61 64 68 72 77 81 86 90 91 90 86 84 85 82 73 58 46 40 40 45 47 47 46 45 46 43 40 40 40 39 38 36 34 31 28 27 26 26 26 27 29 31 31
34 47 56 63 61 56 56 55 61 81 89 88 92 94 94 98 98 99 100 100 101 101 101 100 99 98 97 101 105 107 106 106 107 107 106 103 101 97 90 83 75 69 67 64 63 67 74 80 84 90 93 94 94 92 88 84 83 81 71 58 46 43 45 49 52 52 51 50 49 50 46 42 42 42 40 39 38 36 33 29 27 27 27 28 29 30 32 32
43 58 63 67 64 55 55 63 77 94 101 99 100 101 100 101 101 100 100 100 100 100 101 99 96 93 95 101 102 101 102 103 103 102 97 93 90 87 82 76 71 70 69 69 73 80 87 92 96 98 96 95 93 89 86 83 79 69 55 49 48 49 50 52 55 56 55 53 53 53 50 45 43 44 42 41 41 39 37 33 30 31 30 30 31 32 32 32
52 67 70 70 64 56 60 80 97 100 100 101 99 99 100 100 100 100 100 100 100 101 101 96 92 93 98 102 100 98 99 100 97 92 88 85 82 80 77 74 74 74 75 79 86 92 97 99 99 97 93 92 91 88 86 79 66 56 51 53 56 58 55 53 56 58 58 55 54 56 55 49 44 46 44 42 42 42 41 39 37 37 35 35 35 35 33 32
57 74 78 71 63 66 74 89 102 101 100 102 101 101 101 101 101 100 100 100 99 101 101 98 97 97 98 96 93 94 95 94 92 89 86 83 78 75 74 76 78 80 86 93 97 98 99 98 96 95 92 90 90 86 78 65 55 53 59 62 61 61 59 55 56 58 60 59 57 59 62 58 51 47 43 41 41 43 45 45 45 45 43 41 41 41 39 38
63 83 81 72 73 86 94 95 98 100 99 96 95 96 95 95 95 95 97 97 99 101 99 99 98 93 90 90 90 92 93 93 92 88 82 77 74 73 75 80 84 91 97 99 100 99 98 96 93 92 93 91 86 76 64 58 58 61 66 66 64 62 60 57 57 60 63 65 64 64 69 71 64 53 43 40 40 42 45 49 52 53 50 47 47 46 46 46
69 85 80 78 90 99 102 100 94 93 92 88 88 90 91 93 94 97 100 99 101 99 91 89 89 87 88 91 93 94 93 91 86 80 77 75 76 77 80 86 94 101 103 101 100 99 96 93 92 94 93 86 74 63 61 63 67 70 69 68 65 64 64 60 58 64 69 70 70 69 73 80 80 67 51 46 46 44 46 52 58 59 57 54 52 51 51 52
71 83 82 91 103 101 100 100 94 93 98 101 102 102 102 103 104 103 100 96 92 87 84 86 88 90 93 96 97 96 91 85 79 77 78 78 81 85 91 98 102 104 103 103 101 97 94 92 93 95 86 74 65 62 69 72 72 72 69 70 71 70 72 62 58 69 74 73 74 72 76 87 94 84 64 58 57 53 52 54 58 62 62 61 56 55 57 58
71 82 87 96 99 91 90 96 98 99 101 105 110 109 105 103 102 98 94 91 88 87 88 90 92 94 98 102 101 95 88 82 79 80 82 85 91 96 101 104 103 104 105 103 98 94 95 95 92 86 73 65 67 72 78 79 76 72 69 72 76 78 78 66 60 74 76 73 76 74 79 90 99 94 76 71 73 68 59 54 58 63 63 62 61 60 62 63
69 83 98 104 95 85 83 88 98 104 102 102 105 105 102 100 100 98 96 94 93 92 91 92 95 99 104 104 98 91 87 85 84 85 89 94 100 103 103 104 104 104 103 100 97 96 98 93 81 73 67 67 76 82 84 84 78 74 73 77 80 81 82 73 68 76 76 71 76 79 81 88 96 93 81 83 91 85 73 66 66 67 63 60 62 66 68 67
73 88 107 110 96 88 87 88 98 107 107 103 101 100 99 98 99 97 94 93 93 91 92 95 98 101 104 102 95 90 91 91 89 90 96 101 104 104 104 105 105 102 99 101 103 99 93 80 69 69 73 78 86 88 87 84 78 77 78 80 84 84 82 79 75 78 77 71 77 80 79 89 95 87 81 89 96 92 89 88 83 77 72 66 62 63 65 67
78 89 102 103 92 85 92 99 103 106 104 102 100 98 96 94 92 92 94 98 98 94 95 98 100 102 103 101 97 93 93 93 93 97 102 105 104 104 105 103 102 102 103 106 104 94 82 70 66 73 82 89 92 90 85 82 80 82 83 84 87 85 80 81 82 84 83 78 80 79 77 91 93 81 85 92 91 92 96 98 94 88 87 82 74 68 64 63
92 95 98 101 96 90 97 104 103 101 100 100 99 96 93 91 93 97 100 103 100 95 94 98 100 101 99 98 95 92 92 94 100 103 104 105 104 103 103 101 103 108 107 102 94 86 79 74 75 83 88 90 89 86 81 79 84 88 89 88 85 83 82 84 85 86 86 86 86 82 80 92 91 83 90 95 94 99 100 98 98 97 97 95 92 86 77 71
102 100 99 101 100 99 101 102 100 100 101 101 99 96 95 97 101 104 103 102 99 94 89 88 89 91 92 93 92 93 96 99 104 106 104 103 103 102 103 107 110 108 98 89 83 83 84 83 87 92 91 87 84 83 81 81 88 91 93 92 87 86 87 85 82 81 83 84 85 89 87 91 98 94 89 91 97 99 98 99 102 104 105 105 105 103 99 94
80 91 101 104 101 101 101 100 99 101 102 102 101 100 103 106 107 105 101 97 91 85 83 83 86 90 93 94 95 97 101 103 104 105 104 104 105 107 109 111 108 97 85 79 80 87 90 88 91 92 87 85 83 86 88 87 91 93 95 97 93 90 88 84 81 78 80 79 80 89 87 86 104 105 89 92 102 95 89 92 98 103 104 106 108 110 109 108
73 93 103 103 101 100 100 101 101 101 102 103 104 106 107 103 98 92 89 87 82 83 89 93 96 98 98 99 99 100 103 106 106 107 108 106 107 111 111 104 93 82 77 77 83 91 92 89 89 87 84 87 88 90 93 93 93 93 93 94 93 91 87 86 85 79 80 82 80 84 83 79 93 100 90 93 103 97 88 87 89 92 94 96 98 99 101 101
93 103 102 101 100 99 101 102 102 102 102 103 107 107 98 88 84 82 85 90 93 96 99 99 99 99 101 102 101 103 107 109 109 109 109 109 109 108 101 88 77 72 73 78 88 92 91 88 87 87 90 95 96 97 99 98 96 93 90 90 89 90 90 89 86 81 80 80 83 87 84 77 80 88 91 96 101 97 90 86 84 82 81 83 85 88 90 89
105 103 99 100 100 101 104 103 101 102 102 104 107 104 95 90 89 91 96 100 100 99 99 99 100 102 104 105 106 109 111 111 112 110 107 108 106 95 83 74 70 73 76 82 90 92 90 91 92 97 102 105 106 106 105 102 98 94 91 90 89 90 92 90 87 86 83 80 87 93 88 81 77 77 89 102 106 103 98 95 89 82 79 80 82 85 84 81
106 106 104 104 104 105 106 104 102 102 101 102 103 102 99 98 98 98 100 99 97 98 100 102 104 106 108 110 112 112 111 109 108 104 102 101 91 78 73 71 72 79 83 87 90 90 92 98 102 106 109 112 113 110 106 101 98 97 95 94 94 93 92 90 86 86 83 78 83 89 84 78 70 66 79 97 103 102 101 99 94 90 88 86 84 83 80 77
99 103 104 105 105 105 104 102 102 101 100 101 101 100 99 99 99 102 102 100 99 101 102 104 106 108 109 110 110 109 107 103 99 98 98 91 78 73 75 77 82 88 91 92 91 92 100 106 108 109 111 114 112 108 104 99 96 97 98 97 96 93 89 88 87 86 84 80 77 82 83 77 68 62 73 92 97 95 96 98 98 96 90 83 78 78 79 79
86 90 94 97 101 102 101 102 101 100 100 101 100 99 98 98 98 102 105 102 100 101 101 103 106 106 104 103 103 104 103 100 101 101 93 83 78 81 85 88 93 96 95 97 100 103 109 111 110 111 112 112 109 103 98 98 100 101 99 95 92 92 89 86 86 86 87 87 82 80 82 81 74 63 68 86 92 89 93 98 100 96 89 82 78 78 80 82
76 85 94 103 108 105 102 102 101 100 100 100 99 99 99 100 100 103 103 101 100 100 98 98 99 99 99 100 101 100 100 102 102 95 84 81 83 88 93 96 98 99 98 102 107 110 111 111 112 112 108 106 105 101 98 100 104 104 101 98 95 96 92 86 84 82 82 83 79 75 75 77 74 64 63 71 71 73 82 85 84 84 81 78 76 74 71 69
83 96 104 111 112 105 101 101 100 100 100 98 99 100 101 103 104 102 100 100 99 95 93 94 96 99 102 104 104 102 103 102 95 86 81 84 87 90 96 98 98 101 102 104 107 110 109 107 109 111 108 106 105 103 103 101 99 100 101 101 99 96 87 80 77 75 75 75 73 73 69 63 62 57 56 60 57 61 70 68 64 63 61 59 56 52 50 47
86 97 103 107 106 101 101 101 100 99 97 96 100 103 105 107 104 100 99 98 94 92 93 98 101 105 106 106 105 103 99 93 86 84 85 89 92 95 97 98 100 103 105 106 106 104 103 99 99 105 103 96 96 98 101 100 96 96 96 93 90 88 82 74 68 64 62 58 60 67 61 51 50 48 48 51 50 50 52 47 42 40 39 39 37 36 36 35
80 88 97 104 102 99 99 98 96 96 96 98 102 104 106 104 97 94 94 93 94 97 100 103 105 106 105 104 102 96 89 85 86 90 93 95 97 97 99 102 105 105 103 103 100 95 96 93 93 100 97 88 90 95 96 96 91 83 81 82 81 79 77 71 63 58 52 42 40 51 52 44 43 39 35 37 36 36 35 29 28 29 30 32 32 32 33 32
82 88 95 97 94 93 94 95 97 101 103 105 107 106 104 101 94 92 94 94 97 100 102 106 107 105 102 97 92 89 86 88 91 95 98 100 100 101 104 105 105 103 99 97 94 91 95 97 96 100 99 93 93 91 85 85 83 75 72 74 73 70 66 61 54 50 47 39 32 36 37 32 28 23 20 23 26 27 27 25 25 27 28 28 28 27 27 26
91 97 99 98 100 102 103 104 107 109 110 110 110 106 102 99 95 95 97 99 102 103 105 106 102 96 91 87 85 87 90 93 94 96 99 101 103 104 103 101 99 99 97 95 95 92 94 99 99 96 93 89 86 83 76 75 79 80 73 66 61 57 54 52 50 47 43 37 29 27 27 23 22 18 14 17 21 21 21 23 23 22 21 20 19 18 18 18
98 102 103 103 108 111 111 111 110 108 107 106 104 100 98 97 98 101 105 107 108 107 103 97 90 86 84 85 89 92 95 98 99 100 101 100 101 100 99 97 96 98 98 96 96 92 88 89 89 85 80 77 76 79 77 70 70 74 68 58 52 50 49 48 47 42 33 25 21 21 22 21 20 18 16 17 19 18 17 17 16 15 13 13 12 12 11 12
89 93 96 96 98 101 102 102 101 101 101 99 95 95 97 101 106 109 108 106 104 99 92 87 85 87 90 94 98 99 102 105 104 103 101 98 99 99 98 98 97 96 96 93 90 85 78 75 74 73 71 67 65 67 67 59 54 55 55 52 50 49 47 42 38 35 29 23 19 17 17 18 17 17 19 19 18 16 14 12 11 10 10 10 10 10 9 10
68 74 79 80 83 89 91 93 96 97 96 94 94 99 104 107 109 104 98 95 92 87 85 87 90 95 99 101 103 104 106 106 102 101 100 97 98 98 97 97 96 91 88 83 77 73 68 64 64 65 63 59 53 49 50 50 49 50 49 46 41 38 35 31 29 29 27 25 23 20 19 20 17 16 17 16 15 14 12 11 10 10 9 10 10 10 10 10
49 56 64 71 77 83 85 86 88 90 92 94 96 98 97 95 93 89 86 86 86 87 90 95 98 102 103 103 105 105 103 101 98 97 95 93 93 92 91 89 86 81 76 72 66 64 62 59 57 56 54 51 48 46 47 48 48 46 41 35 29 26 27 26 25 26 27 30 30 26 21 18 15 13 13 13 12 12 11 11 11 11 11 11 11 11 11 10
46 54 62 66 69 72 75 78 81 83 84 82 80 79 80 81 82 83 85 88 92 97 100 101 103 105 106 105 103 100 97 95 94 92 90 88 85 83 79 75 71 68 66 65 62 59 56 52 49 48 49 49 49 49 46 42 39 36 33 33 34 32 31 30 30 29 29 30 30 24 18 15 12 11 12 12 11 10 10 11 11 10 10 10 10 10 9 9
47 51 54 57 59 62 65 67 67 66 66 67 71 76 78 81 83 86 91 97 102 104 105 106 107 106 104 100 96 93 92 91 90 88 85 81 76 72 67 62 61 60 59 59 56 51 47 44 44 46 49 50 47 44 39 34 33 33 30 31 35 36 35 34 32 29 24 22 22 19 16 14 12 12 13 11 10 9 9 9 9 8 8 8 8 8 8 8
43 45 49 51 50 50 51 52 55 60 67 74 78 80 81 84 90 96 103 106 107 108 107 105 103 98 95 94 92 91 89 87 84 79 75 71 65 62 59 58 58 56 53 50 47 45 46 45 44 43 41 39 36 34 31 27 27 27 24 24 28 30 30 27 24 22 18 15 15 14 13 12 12 13 12 10 8 7 7 8 7 7 7 7 7 7 7 7
39 40 41 40 41 44 51 59 67 73 78 79 79 82 87 95 102 105 108 109 108 106 102 97 95 94 94 93 90 85 81 78 74 68 64 61 59 57 57 56 53 48 45 44 45 47 49 48 44 39 33 29 26 25 23 21 20 22 22 23 24 24 22 21 19 17 15 13 13 13 12 10 10 11 10 8 7 7 6 7 6 6 6 5 5 5 5 6
33 33 35 41 51 61 69 74 77 78 78 79 84 92 99 105 108 109 108 106 102 98 96 95 95 94 90 84 79 76 72 68 64 60 58 57 57 55 51 46 43 42 44 47 49 49 47 44 40 36 32 27 23 21 21 21 21 22 21 19 19 18 17 19 18 17 16 14 13 13 12 10 9 10 10 8 7 6 6 7 7 7 7 6 5 5 5 5
32 37 46 58 69 75 77 77 76 78 82 87 95 103 106 108 109 106 102 100 97 97 97 95 90 83 77 73 70 68 65 62 59 58 56 54 51 46 42 40 42 46 49 50 48 44 40 36 33 31 30 27 25 24 25 25 22 20 18 17 16 15 16 18 18 16 15 13 11 10 10 10 10 10 9 8 8 8 7 7 8 7 7 6 5 4 4 4
42 50 61 70 75 76 76 76 79 85 93 99 106 109 107 104 102 100 99 100 100 97 90 83 77 73 71 71 69 65 62 60 58 56 52 47 42 40 42 45 48 49 48 45 40 35 32 29 26 26 28 29 30 28 26 25 22 20 19 19 19 18 18 18 17 15 12 11 10 10 10 10 10 8 8 8 8 7 7 7 7 6 5 4 4 4 4 4
55 65 73 75 74 75 77 81 88 96 103 106 106 103 100 99 98 99 99 97 92 85 78 75 74 75 74 72 67 63 61 59 55 50 44 41 42 45 49 49 48 44 40 35 31 28 26 25 24 24 27 30 30 28 26 25 24 23 22 21 20 19 17 16 14 13 11 10 10 10 9 9 9 8 7 7 7 6 5 6 5 5 4 3 4 4 4 4
68 77 79 77 76 78 83 89 97 103 105 104 100 97 97 97 97 97 93 87 81 77 77 79 79 78 75 69 65 62 58 54 48 44 43 46 48 49 47 44 39 34 31 29 27 25 24 24 24 24 25 26 26 27 28 27 25 23 21 19 17 16 14 14 14 13 12 10 10 10 10 10 9 9 8 6 6 5 5 5 5 5 4 3 4 4 4 4
75 78 76 76 79 84 91 99 105 105 102 99 98 98 98 97 95 92 87 81 80 81 82 83 79 74 70 65 62 58 51 46 43 44 47 48 47 43 39 34 30 27 26 26 25 24 24 25 25 25 24 25 25 26 27 25 21 18 16 15 15 14 13 13 14 14 12 10 9 9 9 9 8 7 6 5 5 5 4 5 5 4 4 3 4 4 4 4
74 74 73 77 85 92 100 104 105 102 100 101 102 101 99 96 92 87 82 81 84 86 84 80 74 68 63 59 54 49 44 42 43 45 45 43 39 35 31 28 26 25 25 24 24 25 27 28 27 25 24 26 25 23 23 21 18 14 13 13 13 12 11 11 13 15 14 11 9 8 8 7 6 5 5 4 4 4 4 5 5 4 4 4 4 4 4 4
Wind_Speed
46 47 48 48 47 47 47 47 46 45 44 44 45 45 46 46 46 48 48 48 48 49 50 50 50 49 49 49 50 51 52 54 55 56 57 57 57 57 56 56 57 57 56 56 57 56 56 56 57 58 58 59 60 61 63 64 65 67 68 69 70 70 71 71 70 70 69 69 68 66 67 67 67 67 67 68 68 68 68 68 63 60 60 58 56 57 57 57
47 47 47 47 47 47 46 46 44 43 43 42 43 43 43 44 45 46 46 46 46 47 48 48 48 48 48 48 48 49 50 52 54 55 55 54 53 53 52 52 52 52 52 52 53 53 54 55 56 57 58 59 61 62 63 65 66 67 68 69 70 70 70 70 69 67 66 67 67 66 66 68 69 68 68 68 68 67 67 65 60 58 60 59 58 59 59 59
47 46 45 45 45 45 44 43 42 42 42 41 41 41 41 43 43 44 44 43 44 46 47 46 47 47 48 48 49 49 50 51 52 51 49 48 47 47 47 47 47 48 49 49 51 52 54 55 56 58 59 60 62 63 64 65 66 68 69 69 69 69 68 68 66 65 65 65 66 67 67 68 70 69 67 66 65 67 65 61 57 57 60 60 60 60 61 61
45 44 43 42 43 42 40 40 40 41 40 40 40 39 40 41 41 41 41 42 42 44 44 43 43 43 44 46 47 49 49 48 47 44 42 42 42 42 43 44 45 46 48 49 51 52 54 56 57 59 60 61 62 63 65 66 67 68 68 67 67 66 66 65 64 65 65 65 67 68 68 69 69 67 66 63 63 65 63 59 57 59 61 62 61 60 62 62
42 42 41 42 42 38 36 37 38 39 39 38 39 38 38 40 40 38 39 39 39 39 38 37 38 39 41 43 44 45 44 42 41 40 40 40 41 42 43 44 45 47 48 50 51 53 55 57 58 60 61 62 63 64 65 66 66 66 67 65 64 63 64 64 64 65 66 66 67 68 68 68 67 65 64 63 61 62 62 60 60 61 61 61 61 60 61 63
39 41 41 41 38 33 33 35 35 36 37 37 37 37 37 38 38 37 36 35 34 34 34 35 36 37 40 40 39 38 37 37 38 40 41 42 43 44 45 46 47 48 50 52 54 55 57 58 60 61 62 63 63 64 64 64 64 63 63 62 62 62 63 64 65 65 66 66 67 67 67 66 64 63 63 63 60 61 63 62 61 61 61 61 61 60 60 62
39 40 40 38 34 32 33 34 34 34 34 35 35 36 37 38 37 36 34 33 34 35 37 37 38 38 38 35 33 34 34 36 39 40 41 43 45 46 47 48 49 51 53 54 56 57 58 60 60 61 62 62 62 61 61 61 60 59 60 61 61 62 63 64 65 66 66 66 66 65 65 64 62 62 63 62 61 62 63 62 61 61 62 62 61 60 60 61
39 40 39 36 33 32 33 33 33 33 33 34 35 36 37 37 36 34 34 35 36 36 37 38 39 39 38 35 34 36 38 40 41 42 43 45 46 47 48 50 51 53 55 56 57 58 59 60 60 60 60 60 59 58 57 57 57 58 59 61 62 62 63 64 64 65 65 64 64 65 65 63 61 61 62 62 62 62 63 62 61 61 62 61 61 61 60 61
38 38 37 35 33 33 32 32 32 32 33 33 33 34 34 33 33 32 33 34 34 34 35 36 38 38 38 38 39 40 42 43 44 45 46 47 48 49 49 51 52 53 55 56 57 57 58 58 57 57 56 56 55 55 55 55 57 59 60 62 62 63 63 63 63 63 63 63 63 64 64 63 61 60 61 62 62 63 62 62 61 61 61 60 60 60 60 61
38 38 36 35 34 33 32 31 31 30 30 29 29 29 29 29 28 28 28 29 30 31 32 34 36 37 38 39 40 42 43 44 45 46 47 47 47 48 48 50 51 53 53 54 54 54 54 53 53 53 53 53 53 54 55 57 58 60 61 62 62 63 63 62 61 61 62 62 63 63 64 62 61 60 60 61 62 62 63 62 61 60 59 58 58 59 59 60
38 38 36 35 35 34 32 31 29 26 25 25 24 25 25 25 25 25 26 27 29 31 32 34 35 37 38 39 40 41 42 43 44 45 45 45 46 47 48 49 51 51 51 51 50 50 50 50 50 51 51 52 54 55 57 58 59 60 61 62 62 61 61 60 60 60 61 62 62 63 64 62 61 61 61 61 62 63 63 61 59 58 57 56 56 57 58 58
38 37 36 35 35 34 32 29 27 23 20 21 22 24 25 26 27 29 30 31 33 33 34 35 35 36 37 38 38 40 41 41 42 43 43 44 45 46 47 48 49 48 49 49 49 49 49 49 50 51 52 54 55 57 58 59 60 60 61 61 61 60 60 59 59 60 60 61 61 63 64 63 61 62 61 61 62 63 63 61 58 56 56 55 55 56 57 57
38 37 36 35 34 33 30 27 26 26 25 25 27 29 30 31 32 33 34 35 36 36 36 36 36 36 36 37 38 39 40 40 41 42 43 44 45 46 46 46 47 48 48 48 47 47 48 49 50 52 54 55 57 58 59 60 60 60 60 60 60 60 59 58 58 59 60 61 61 62 64 64 61 62 62 61 61 62 63 61 57 56 55 55 56 57 57 56
38 37 36 35 34 31 29 27 26 30 33 33 33 34 34 35 35 35 36 37 37 38 38 38 37 37 37 37 37 38 38 39 40 41 42 43 44 45 45 46 47 47 47 46 46 47 48 50 52 54 55 57 58 59 59 60 60 59 59 60 60 60 60 59 58 59 60 61 60 61 64 66 63 63 63 62 60 61 62 61 58 56 56 56 56 57 57 57
38 37 36 34 31 28 29 30 30 33 37 38 38 38 38 38 38 38 38 39 39 39 39 40 40 39 37 36 36 36 37 38 39 40 41 42 43 44 45 45 46 45 45 45 46 48 50 52 53 55 57 57 58 59 60 60 60 59 59 59 60 60 60 60 59 59 60 61 60 60 62 67 68 66 65 63 60 59 60 60 58 57 58 56 56 57 57 57
37 37 36 32 28 25 28 33 36 37 40 41 41 40 40 39 39 39 39 39 39 40 40 40 39 37 35 35 36 36 36 38 39 40 41 42 43 44 44 44 43 44 45 46 48 50 52 53 55 56 57 58 58 59 59 59 59 59 59 59 60 61 61 61 59 59 60 60 60 60 61 66 70 72 70 65 62 60 60 60 59 59 58 57 56 57 57 58
37 37 35 31 28 28 30 34 37 38 38 38 37 37 37 37 38 38 39 39 39 39 37 36 35 34 34 35 36 36 37 39 40 41 42 42 42 43 42 42 42 44 46 48 50 52 53 55 56 57 58 58 59 59 59 59 59 59 60 60 61 62 62 62 59 59 61 60 61 61 60 64 70 76 75 69 65 63 61 60 60 60 60 59 58 58 58 59
37 36 35 33 34 35 37 37 35 33 32 32 33 34 35 36 37 37 37 37 35 34 33 33 33 34 35 36 37 38 39 40 41 42 42 41 41 41 42 43 44 46 48 50 52 53 55 56 56 57 58 58 58 59 59 60 60 60 61 61 62 62 64 64 59 59 62 60 61 62 60 62 69 77 79 72 68 68 65 62 61 61 62 62 61 60 59 60
36 35 34 35 37 38 38 37 34 31 31 30 31 32 32 33 33 33 33 33 33 33 33 34 35 36 37 38 39 40 41 41 41 41 41 40 40 41 43 44 46 47 49 51 54 55 56 57 57 57 57 58 58 59 60 61 62 62 62 62 63 63 65 66 61 60 63 61 61 62 60 61 67 77 79 73 71 73 70 67 64 63 63 64 64 63 63 62
34 33 33 35 36 35 35 34 33 32 31 30 30 31 31 32 32 33 33 34 34 35 36 37 37 38 39 40 41 41 41 41 41 40 40 40 41 43 44 46 48 50 51 53 55 56 57 57 56 56 58 58 59 60 61 63 63 64 64 63 64 64 65 67 64 62 64 63 61 63 62 62 67 75 75 71 73 75 74 73 71 68 67 67 67 67 67 66
33 32 31 32 32 31 32 32 31 30 29 30 31 32 33 34 34 34 34 35 36 37 38 39 39 40 41 42 42 41 41 41 41 40 40 41 42 44 46 48 50 52 53 54 56 57 57 57 56 56 58 59 60 62 63 64 65 65 65 64 65 66 66 67 66 65 66 65 62 64 63 63 69 74 71 69 71 74 75 77 77 75 73 73 72 71 70 70
32 30 29 30 30 28 28 28 28 28 29 30 32 34 35 35 34 35 36 38 39 39 39 40 40 41 41 41 41 41 40 40 40 41 41 43 44 46 48 50 51 53 54 55 56 57 58 57 57 57 58 60 62 64 65 66 66 66 67 66 66 68 68 66 67 67 68 68 66 66 65 65 71 72 70 70 71 72 74 77 80 79 79 79 79 78 76 75
29 29 30 33 34 31 28 26 27 28 30 32 34 35 35 35 35 36 38 39 40 39 38 39 39 40 40 40 40 40 40 40 41 42 43 45 46 48 50 51 52 53 55 55 55 56 57 58 58 59 60 62 63 66 67 66 66 67 68 69 69 69 69 68 68 68 70 71 70 69 68 69 72 72 71 71 71 71 74 77 80 81 82 83 83 83 82 81
34 34 35 37 39 37 31 28 28 30 32 34 35 36 36 35 36 37 38 38 37 36 36 37 37 38 38 38 39 39 40 41 42 44 45 47 49 50 51 52 53 55 55 54 54 55 58 59 59 61 63 64 65 67 68 68 67 68 69 71 71 71 72 72 71 70 70 72 72 72 73 73 75 74 72 71 72 73 74 77 80 82 83 84 85 86 86 85
36 36 37 39 39 37 33 30 31 33 34 35 36 36 35 35 35 35 35 35 35 35 35 35 35 36 37 38 39 40 42 43 44 46 47 49 50 51 52 54 54 55 55 54 54 56 59 60 60 62 64 66 67 68 69 69 69 70 70 72 73 74 75 75 75 74 73 74 74 74 76 76 77 79 75 72 74 75 76 78 81 83 84 85 85 86 87 87
32 33 35 36 36 34 32 32 33 34 35 35 35 35 34 34 34 33 33 33 33 33 34 34 35 37 38 39 41 42 43 45 46 47 49 50 51 52 54 55 54 54 54 54 55 57 59 61 63 65 66 67 69 69 70 72 72 72 73 74 75 77 78 78 79 79 78 78 77 77 79 79 79 82 78 75 77 78 79 82 83 85 86 86 87 88 88 89
32 34 35 35 34 34 33 34 34 34 34 34 33 33 33 33 32 32 31 31 32 33 34 35 36 38 39 41 43 44 45 47 48 49 50 50 52 54 54 55 54 54 55 55 56 59 60 62 65 66 67 68 70 71 72 74 75 75 76 77 78 79 80 81 82 83 83 82 80 80 83 83 83 84 82 79 80 82 83 85 86 88 89 89 90 90 91 91
33 35 35 35 35 35 34 34 34 34 33 33 33 33 34 33 32 31 31 31 33 35 36 36 38 39 41 43 45 46 47 48 49 50 51 52 53 55 54 55 54 55 56 57 58 60 62 64 66 67 68 70 72 74 75 76 77 78 80 81 82 82 83 84 85 86 88 87 83 83 85 86 87 87 85 84 85 86 88 89 90 90 91 91 92 93 93 94
35 36 36 35 35 35 34 34 34 34 33 33 34 35 35 34 34 34 33 34 35 36 37 38 39 41 42 44 46 47 48 49 50 52 53 54 54 55 54 55 55 56 58 59 60 62 63 65 67 68 69 71 74 76 78 79 80 81 83 84 85 85 86 88 89 90 91 90 86 86 87 89 90 90 89 88 89 91 92 93 93 92 93 93 94 95 95 95
36 36 36 35 35 35 33 32 33 34 34 35 36 37 37 36 36 36 36 37 37 38 38 39 41 42 44 45 47 48 50 51 52 53 54 55 55 54 55 56 57 58 60 61 63 64 65 66 68 70 72 74 76 78 80 81 82 84 86 87 88 89 90 91 92 92 93 93 91 90 91 93 95 94 93 94 95 95 96 96 96 96 96 96 95 96 96 96
35 35 35 34 34 33 32 32 33 34 35 37 38 38 38 38 38 37 38 39 39 39 40 41 42 44 46 47 48 50 51 53 54 55 55 55 55 55 56 57 59 61 61 63 65 66 67 68 70 72 75 77 79 81 82 83 85 87 89 91 92 93 94 94 93 93 94 95 95 94 94 97 99 97 96 97 98 99 99 100 100 100 100 99 99 98 98 98
33 33 33 33 32 31 32 32 34 35 37 38 38 38 38 38 38 39 39 40 41 41 42 43 44 46 48 49 51 52 53 55 56 56 55 55 55 56 58 59 61 63 63 64 65 67 69 70 72 75 78 80 82 83 84 86 87 90 92 94 96 96 97 96 95 96 96 96 97 97 97 98 100 99 98 99 100 101 102 102 102 102 101 101 101 101 100 100
32 33 33 32 31 31 32 33 35 37 38 39 39 38 38 39 39 40 40 41 43 43 44 45 47 48 50 52 53 54 55 55 56 56 55 56 57 59 60 62 63 64 65 65 66 67 70 72 73 76 80 83 84 85 87 89 90 92 94 96 97 98 99 98 97 97 98 98 98 98 99 99 100 99 99 100 101 102 104 104 104 103 103 102 102 102 102 101
32 32 32 31 31 32 33 35 38 39 39 39 39 39 39 40 40 41 42 43 44 45 46 47 49 51 52 53 55 55 55 55 55 56 57 58 60 61 62 63 64 66 67 67 67 68 71 73 75 78 82 84 85 87 89 92 93 94 95 97 98 99 101 101 100 100 100 100 98 99 101 102 101 101 101 101 101 103 105 105 104 103 103 103 102 102 102 101
29 30 30 31 32 34 35 37 38 38 38 39 39 40 40 41 42 42 44 45 46 47 48 50 51 52 53 54 55 55 55 55 56 57 59 61 62 63 64 65 66 67 68 69 70 71 73 76 78 82 86 87 88 90 92 93 95 95 96 97 99 100 102 103 103 103 104 102 99 98 100 102 102 102 102 102 102 103 105 105 104 104 103 103 103 102 102 102
27 28 29 31 32 34 35 36 36 37 38 39 40 40 42 43 43 44 45 46 47 48 50 51 52 53 53 53 54 54 55 56 57 59 61 63 64 65 66 67 68 69 71 72 74 75 76 78 81 86 89 90 90 92 93 94 96 96 97 98 100 101 102 104 103 103 105 104 100 98 99 100 101 102 101 101 102 103 104 104 104 104 104 104 104 103 103 103
26 28 29 30 32 33 34 35 36 37 39 40 41 42 43 44 44 45 46 48 49 50 51 52 52 52 52 53 53 54 56 58 60 61 62 64 65 67 68 69 71 72 74 75 77 79 79 80 83 87 90 91 91 92 93 93 95 98 99 99 101 102 103 104 104 103 104 104 101 100 101 101 103 103 102 101 102 102 103 103 104 104 104 104 104 103 102 102
26 28 29 30 31 33 35 36 37 38 40 41 42 43 43 44 45 46 47 48 49 50 50 51 51 51 52 53 54 56 58 60 62 63 65 66 67 69 70 71 73 75 77 79 81 83 83 82 83 86 89 91 91 92 94 94 95 97 99 100 100 101 102 103 105 105 105 104 101 100 101 101 101 103 103 103 103 102 102 103 104 104 104 103 103 102 100 99
27 29 30 31 33 34 36 37 37 39 40 40 41 42 42 43 45 46 47 48 49 49 49 49 50 51 52 54 56 58 60 62 64 65 66 67 69 70 72 74 76 78 79 81 83 84 85 84 84 85 89 90 91 92 94 95 95 96 97 98 98 100 101 102 104 106 108 107 104 103 102 101 100 101 103 105 106 105 104 103 103 103 102 102 102 102 101 100
28 30 31 32 33 34 35 35 36 37 38 38 39 41 42 43 44 45 46 46 47 47 48 49 50 51 54 56 58 60 61 63 65 66 68 69 71 73 75 77 79 81 82 83 84 85 86 86 86 87 89 91 92 93 94 95 96 96 97 98 98 99 101 102 103 104 107 107 107 106 105 104 103 102 103 105 106 107 106 104 103 103 102 102 103 103 103 102
28 29 30 30 31 32 33 33 34 35 36 37 38 39 40 41 42 43 43 44 45 46 48 49 51 53 55 58 59 61 63 64 66 68 70 72 73 75 77 78 80 81 83 84 84 85 86 87 88 89 90 92 92 93 94 94 95 97 98 99 100 100 101 102 102 103 105 106 107 109 109 107 105 103 103 104 105 105 105 105 105 104 104 104 104 105 105 104
26 27 28 28 29 30 31 32 33 34 35 36 37 37 38 39 40 41 42 44 45 47 49 51 53 55 57 59 61 62 64 66 68 70 72 74 75 77 78 79 80 82 83 84 85 86 87 88 88 89 90 91 91 92 93 94 96 98 98 99 101 102 102 103 103 103 105 105 106 109 109 108 105 103 103 104 104 104 104 105 106 105 104 105 105 105 105 104
25 26 27 27 28 29 30 31 32 33 33 34 35 36 37 38 39 41 43 45 47 49 51 53 55 57 58 60 62 64 66 68 70 72 73 75 76 78 79 80 81 83 84 85 86 87 88 88 88 88 88 90 92 92 93 93 94 97 97 96 97 99 100 102 103 105 105 104 104 106 107 106 105 104 105 106 106 105 104 105 105 104 104 104 104 104 104 104
25 26 26 27 28 29 29 30 30 31 32 33 34 35 36 38 40 42 44 46 49 51 53 54 56 58 60 62 64 66 68 70 71 72 74 75 77 79 80 81 82 84 85 86 87 87 88 88 89 88 88 90 91 93 93 93 92 94 95 94 93 95 98 99 100 103 104 103 104 105 106 104 104 105 107 107 107 106 104 104 104 104 103 102 101 101 100 100
25 25 26 26 26 27 27 28 29 30 31 32 34 36 37 39 41 44 46 48 50 52 54 56 58 60 62 64 66 68 69 70 72 73 75 77 78 80 81 82 83 84 85 86 86 87 88 89 90 91 91 91 92 93 94 94 94 94 96 95 95 96 97 98 100 102 104 104 104 107 108 106 104 105 107 106 106 105 103 102 102 102 101 100 98 96 95 95
24 24 24 24 24 25 26 27 28 30 32 33 35 37 39 41 43 46 48 50 52 54 55 58 60 62 64 65 67 68 70 71 73 75 76 78 79 80 81 82 83 84 85 85 86 87 88 89 90 91 92 93 93 94 95 96 96 96 97 97 97 97 98 100 102 104 106 107 106 107 109 108 105 105 106 105 104 103 101 100 100 99 99 98 96 93 91 91
23 22 22 22 23 25 26 28 30 31 33 35 36 39 41 43 45 47 49 51 53 56 58 60 62 64 65 67 68 70 72 73 75 76 77 79 80 81 82 83 83 84 85 86 87 87 88 88 89 89 90 92 93 94 95 96 97 98 98 98 99 99 100 102 105 107 107 108 107 106 107 107 106 106 105 104 103 101 99 98 97 96 95 94 93 90 88 87
21 21 21 22 24 26 27 29 31 33 34 36 38 40 42 44 46 49 51 53 56 58 60 61 63 65 66 68 70 72 73 75 76 77 79 80 81 82 82 83 84 84 85 86 87 87 88 88 88 88 89 91 93 94 95 96 98 98 98 100 101 102 103 104 106 107 107 108 108 106 106 105 106 106 103 101 101 99 96 95 94 93 92 89 87 86 85 84
20 20 22 24 25 27 29 31 32 34 36 38 40 42 44 46 49 51 53 55 57 59 61 63 65 67 69 70 72 73 75 76 77 79 80 81 82 82 83 83 84 84 85 85 86 87 88 88 89 88 88 89 92 93 95 97 98 99 100 100 101 103 104 104 105 106 107 107 107 106 105 104 104 105 102 100 99 98 95 94 93 92 90 86 84 83 82 81
20 22 24 25 27 29 30 32 34 36 39 41 43 45 47 49 51 53 55 57 59 61 63 65 67 68 70 72 73 74 75 77 78 79 80 80 81 82 83 83 84 84 85 85 86 87 88 88 89 90 89 90 92 93 95 97 98 99 100 101 101 102 103 103 103 105 106 106 105 104 103 101 101 101 100 99 98 97 94 93 92 91 88 84 81 80 79 78
22 24 26 27 29 30 32 34 36 39 41 43 45 48 50 51 53 55 57 59 61 63 65 67 68 70 71 72 73 75 76 77 78 78 79 80 80 81 82 83 83 84 85 86 86 87 88 89 90 91 91 91 93 94 95 98 99 100 100 100 100 101 101 101 101 102 104 104 102 100 99 98 96 96 96 94 93 93 91 90 90 88 85 81 79 78 77 75
24 25 27 28 30 32 34 36 39 41 43 46 48 50 51 53 55 57 59 62 64 65 67 68 70 71 72 73 74 75 76 77 77 78 78 79 80 81 82 83 84 84 85 85 86 87 89 90 91 93 92 93 94 95 96 99 100 101 101 101 101 101 100 98 97 98 101 102 101 98 97 96 94 94 92 90 89 88 87 88 89 86 82 78 77 76 75 73
Wind_Direction
218 218 218 218 218 220 221 222 223 224 225 226 228 229 230 231 232 233 233 234 235 236 237 239 240 241 242 243 245 246 248 249 250 252 253 255 257 259 260 261 262 263 264 265 265 266 267 267 268 268 269 269 270 271 272 272 273 274 276 277 279 281 282 283 284 284 285 285 285 286 286 286 286 285 286 285 285 284 283 283 284 285 284 283 282 279 275 271
218 218 218 218 218 219 220 222 223 224 224 225 226 227 228 229 230 232 233 233 234 235 236 238 239 239 240 241 243 244 246 248 250 252 254 256 258 260 261 261 262 263 264 264 265 266 266 266 267 267 268 269 270 271 272 273 274 275 277 279 281 282 283 283 284 285 285 286 286 287 287 287 286 286 286 285 285 284 283 284 287 287 284 282 279 275 273 270
220 219 218 218 219 221 221 221 221 222 223 224 225 225 226 228 229 230 232 232 232 234 236 237 239 240 241 242 243 243 245 248 251 254 257 259 259 260 260 261 261 262 263 263 264 264 265 266 267 267 268 269 270 271 272 274 275 277 279 281 282 283 283 284 285 285 286 286 287 287 287 286 286 286 285 285 285 284 284 286 286 282 278 276 273 272 271 270
220 218 217 217 220 221 220 220 220 221 222 222 223 224 225 227 228 229 231 231 232 234 237 238 240 241 242 243 243 245 247 250 253 256 257 257 257 258 259 260 260 261 262 262 263 264 265 266 267 268 269 270 271 272 274 276 277 279 281 282 283 284 284 284 285 286 286 287 287 287 287 286 286 286 286 285 285 285 285 285 281 277 275 274 273 272 272 271
218 217 216 218 220 220 217 217 218 219 220 220 221 222 224 227 229 228 229 231 231 234 236 238 239 241 242 242 244 247 250 252 254 254 254 253 254 255 257 258 259 260 261 262 263 264 265 266 267 269 270 271 272 274 276 278 280 281 282 283 283 284 285 285 286 287 287 287 287 287 286 286 286 287 287 286 286 286 286 282 279 278 277 276 275 273 272 271
216 215 217 218 218 216 215 216 217 218 219 219 220 221 222 226 229 227 228 229 230 230 230 231 235 238 242 246 249 252 252 253 253 252 252 252 253 255 256 258 259 260 262 263 264 265 266 267 269 270 271 273 275 277 279 280 281 282 283 283 284 284 286 286 287 288 288 288 288 287 287 287 288 289 288 287 287 286 284 283 282 281 279 277 276 274 272 271
214 214 217 217 214 211 213 214 215 216 217 219 219 219 220 224 227 227 224 224 225 226 227 228 231 235 241 247 250 249 248 248 249 250 251 252 254 255 257 258 260 261 263 264 266 267 268 270 272 273 275 276 278 279 280 281 281 282 283 284 285 286 287 287 288 289 289 288 288 288 288 288 289 290 289 289 288 286 285 285 284 282 281 280 278 277 275 273
212 213 215 213 209 209 210 211 213 213 214 217 218 219 221 224 227 227 224 223 225 228 230 230 233 236 240 243 242 241 241 243 246 248 251 254 256 258 259 261 263 264 266 267 269 270 272 273 275 277 278 278 279 280 280 282 283 284 285 285 286 287 288 288 289 289 289 289 289 289 289 290 291 291 291 290 289 288 287 286 285 283 283 282 281 280 278 276
209 210 211 209 206 207 208 208 209 211 213 217 219 221 223 226 228 228 227 227 229 232 234 234 236 239 242 244 242 241 243 245 248 251 254 256 259 262 264 266 267 268 269 270 272 274 275 276 277 278 279 279 280 282 282 284 285 285 286 287 287 288 288 289 290 290 290 290 290 290 290 291 292 291 291 290 289 288 287 286 285 284 284 284 283 283 281 280
206 206 206 205 204 205 206 205 206 208 212 216 220 222 222 223 224 225 226 227 229 231 234 235 236 238 240 243 244 245 248 250 252 255 258 261 264 266 268 269 270 270 272 274 275 277 277 278 279 280 281 282 283 284 285 285 286 287 288 288 288 289 289 290 290 291 291 291 291 291 291 292 292 292 291 290 289 288 286 285 285 285 285 285 285 284 282 280
204 204 204 203 204 204 204 204 204 206 211 215 218 221 221 221 222 222 224 226 227 228 230 233 235 238 240 244 246 249 252 254 256 258 261 264 267 268 269 270 272 273 275 277 279 279 279 280 281 283 284 285 286 286 287 287 287 288 288 289 289 290 290 291 291 291 291 291 291 291 291 291 291 291 290 290 289 287 287 286 287 287 287 286 285 282 280 279
202 202 202 203 204 204 204 204 199 197 208 215 216 219 219 220 222 222 224 225 227 228 230 233 236 241 245 248 250 252 255 258 260 261 263 265 268 269 271 273 275 277 279 281 281 281 282 283 284 285 286 287 287 288 288 288 289 289 289 289 290 290 290 291 291 291 291 291 291 291 291 291 291 291 290 290 289 289 289 289 290 290 289 287 285 281 279 277
200 200 201 203 205 205 202 199 192 187 197 209 212 215 215 216 220 222 224 226 228 231 233 236 240 248 254 256 256 258 260 262 263 264 265 267 270 272 275 277 280 281 282 283 282 283 284 285 286 287 287 288 288 288 289 289 289 290 289 290 290 291 291 291 291 291 291 291 291 292 292 291 291 291 290 290 290 291 291 292 292 292 290 287 285 282 280 279
198 200 201 203 205 204 199 191 189 192 196 204 210 213 215 216 220 223 226 229 231 234 237 242 249 257 260 260 261 263 264 265 267 268 269 272 274 276 278 281 283 284 284 283 283 285 286 287 287 288 288 289 289 289 289 290 289 289 290 290 290 291 291 291 291 290 290 290 291 292 293 292 291 290 290 290 291 292 293 293 294 292 289 287 286 285 283 282
197 199 201 204 203 202 198 190 193 203 203 205 209 213 217 219 222 224 227 230 234 239 244 251 257 260 262 263 265 266 267 269 271 273 274 276 277 279 281 282 283 284 284 284 285 286 287 287 288 288 289 289 289 289 289 289 289 289 290 290 291 291 291 290 290 290 290 291 292 294 295 295 294 292 290 290 291 292 294 294 294 292 289 288 287 287 286 285
195 197 201 202 196 196 202 197 197 205 209 210 213 216 220 223 226 229 233 237 241 246 251 255 259 262 265 267 269 270 272 274 276 277 278 279 280 281 282 283 284 284 285 286 287 287 287 288 288 289 289 290 289 289 289 288 289 289 290 290 290 290 290 289 289 290 291 292 294 295 296 297 296 294 291 291 292 293 293 294 294 292 290 289 288 286 286 285
194 197 199 195 187 191 205 210 207 209 214 217 220 224 228 231 234 237 241 245 247 251 255 258 262 266 269 271 273 274 276 277 278 279 280 281 282 283 284 285 285 286 287 287 287 288 288 288 289 290 290 290 289 289 288 288 289 289 290 290 290 290 290 289 290 292 292 293 295 295 297 298 297 295 293 294 296 295 294 294 293 293 292 290 288 287 285 284
194 196 196 191 189 194 204 213 215 215 219 222 225 229 233 235 238 241 245 249 253 256 260 264 267 270 273 275 277 278 278 279 280 281 282 284 284 285 286 287 287 287 288 288 288 288 289 290 290 290 290 289 289 288 288 288 289 289 289 290 290 291 290 290 291 293 293 294 294 295 296 297 297 295 295 298 299 297 295 293 293 293 293 292 290 288 286 285
195 195 195 195 198 202 206 213 217 219 223 226 228 232 236 240 244 248 252 256 260 264 267 270 272 274 276 278 279 280 280 281 282 283 284 285 286 287 288 288 288 288 288 289 289 290 290 290 290 290 289 289 288 288 288 288 289 289 290 290 290 291 291 291 293 293 292 293 294 295 295 296 296 294 295 300 300 298 296 294 293 293 292 291 291 289 288 286
196 196 197 202 207 211 214 216 218 221 226 229 234 238 242 246 249 252 256 260 264 267 270 272 274 276 277 278 280 280 281 282 283 284 285 286 287 288 288 289 289 289 289 290 290 290 290 290 290 289 288 288 288 288 288 288 289 290 290 291 291 291 291 292 294 293 292 293 293 294 295 296 294 292 295 300 299 298 298 297 295 294 293 291 290 290 289 287
197 198 200 207 212 214 217 220 220 224 228 232 237 241 244 247 250 255 260 264 267 270 272 273 274 276 277 279 280 281 282 282 283 284 286 287 288 288 289 289 289 290 290 291 291 291 290 289 289 289 288 288 288 288 288 288 289 290 291 291 291 291 291 292 294 293 292 293 293 292 294 295 292 291 295 297 296 297 298 297 296 296 295 293 291 290 288 287
199 198 199 208 214 214 216 220 223 227 232 237 240 243 246 251 256 261 266 269 270 271 272 274 274 276 277 278 279 280 281 283 284 286 287 288 288 289 289 289 290 290 291 291 291 291 290 289 289 288 288 287 287 287 288 289 290 291 292 292 291 291 292 292 293 293 293 293 293 292 293 293 290 292 295 295 295 296 296 295 295 296 295 294 293 291 289 288
197 197 197 206 215 220 223 226 228 231 236 240 244 248 253 258 263 267 269 270 271 271 272 273 274 275 276 277 278 280 282 284 286 287 287 288 289 289 290 290 291 291 292 291 290 290 289 289 289 288 287 287 287 288 289 290 291 292 292 292 291 292 292 293 292 293 293 293 293 293 293 291 290 291 292 293 294 294 294 294 294 294 294 293 293 292 291 289
194 198 200 205 213 222 229 233 233 235 239 244 249 255 259 263 267 268 269 270 270 271 272 273 274 275 277 278 279 281 283 285 286 287 288 289 290 291 292 292 292 292 291 290 289 288 288 288 288 288 288 288 288 289 291 292 292 292 292 292 292 293 293 293 293 292 292 292 292 293 292 292 291 290 290 292 292 291 292 292 292 292 291 291 290 290 290 290
198 200 203 207 214 222 229 234 236 240 245 250 254 258 262 265 267 268 268 269 270 272 273 274 275 276 277 278 280 282 284 285 286 288 289 290 291 292 292 292 292 291 290 289 288 287 287 287 288 288 289 290 290 291 292 292 292 292 292 293 294 294 294 294 294 293 293 292 292 292 291 291 291 289 290 291 291 291 291 290 289 289 288 288 287 287 286 286
203 204 207 212 219 225 230 234 240 245 249 253 256 259 262 264 266 267 269 271 272 273 274 275 275 276 278 279 281 283 284 286 287 289 290 291 291 292 292 292 291 289 288 288 287 287 287 289 289 289 290 291 291 292 292 292 292 293 293 293 294 295 295 294 294 294 293 293 293 292 291 290 289 289 290 290 290 290 290 289 288 287 286 286 285 284 284 284
206 209 213 218 223 227 232 236 241 246 250 253 257 261 264 267 269 271 272 273 273 273 274 274 275 277 279 281 282 284 285 287 288 289 290 290 291 291 291 290 289 288 287 287 288 288 289 290 290 291 292 292 292 292 292 293 293 294 294 295 295 295 295 294 294 294 294 293 294 293 292 291 290 289 290 291 290 290 289 287 286 286 285 285 284 284 283 283
208 213 217 221 225 229 233 237 241 246 251 255 259 264 269 272 274 274 274 272 271 271 273 275 277 279 281 282 284 285 286 287 288 289 290 290 290 290 290 289 288 288 289 289 290 290 291 291 292 292 292 292 292 292 293 293 294 294 295 295 295 295 295 294 294 294 294 294 294 293 292 291 291 290 291 291 291 289 288 287 286 286 285 285 285 284 283 283
210 215 219 222 226 230 233 237 242 247 252 256 261 266 271 273 274 274 273 272 271 273 276 278 279 281 282 283 284 286 286 287 288 289 290 291 291 290 290 290 290 290 291 291 291 291 292 292 292 292 291 292 292 292 293 294 294 295 295 295 295 295 294 294 294 295 294 294 294 293 292 292 291 291 292 291 290 289 288 287 286 286 285 284 283 283 283 283
212 216 220 223 226 229 232 237 243 248 253 257 262 267 271 273 274 274 274 274 275 276 278 279 280 281 282 284 285 287 288 289 290 291 292 292 292 292 291 291 292 291 292 293 293 293 293 292 291 291 291 291 292 292 293 294 294 295 295 295 294 294 294 294 295 295 295 295 295 294 294 293 293 293 293 293 291 290 289 288 288 286 285 284 283 283 283 282
213 216 219 222 225 228 232 237 243 249 254 258 263 267 271 272 273 274 275 276 278 279 280 281 282 284 285 287 288 289 290 291 292 293 293 293 293 293 292 292 292 292 293 294 294 294 293 292 291 291 291 291 292 292 293 294 295 295 295 295 295 295 295 295 295 295 294 294 295 294 294 294 293 294 294 293 292 291 290 289 288 287 286 286 285 284 284 283
214 216 219 221 223 226 231 238 244 249 254 258 262 265 268 270 272 274 276 278 280 281 282 284 285 286 288 289 290 291 292 293 293 294 293 293 292 292 292 292 293 293 294 294 294 294 293 293 292 292 292 292 293 294 295 295 295 295 295 295 296 295 295 295 295 294 294 293 294 294 294 293 293 293 293 292 291 290 289 288 288 287 286 286 285 284 283 282
213 216 219 220 223 227 233 240 245 250 253 257 260 263 266 269 272 275 277 279 281 282 284 286 287 289 290 291 292 293 293 294 294 293 292 292 292 292 292 293 293 294 294 294 294 293 293 293 293 292 292 292 293 294 295 295 295 295 295 295 295 294 294 294 294 294 294 294 294 294 294 293 292 292 292 291 291 290 289 288 287 287 286 286 285 284 283 282
214 217 219 222 225 231 237 241 246 249 253 257 261 264 267 269 272 275 278 279 282 284 286 287 289 290 291 292 293 293 293 293 292 292 292 292 292 293 294 294 295 295 295 294 294 293 293 293 292 292 291 292 293 294 294 295 295 295 295 295 295 295 295 295 295 295 295 294 294 295 294 293 293 292 291 290 290 289 288 288 288 287 287 286 286 285 284 283
219 221 222 225 229 233 238 242 247 251 255 259 262 265 267 270 273 275 278 280 283 285 287 289 290 291 292 293 293 293 292 292 292 292 293 293 294 294 295 295 295 295 295 295 294 293 293 294 294 293 293 295 295 295 295 295 295 295 295 295 295 296 296 296 296 296 295 295 295 294 293 293 293 292 291 291 290 290 289 289 289 289 288 287 286 285 285 284
224 226 227 231 234 239 242 246 250 254 258 261 263 266 269 271 274 277 280 282 285 287 289 290 291 292 292 292 292 291 292 292 292 293 293 294 295 296 296 296 296 296 295 295 295 294 295 295 296 295 295 296 296 296 296 296 296 296 296 296 296 296 296 295 295 295 295 294 295 294 293 293 293 292 291 292 291 291 290 290 289 289 288 287 287 286 285 284
227 230 233 237 240 244 247 250 254 256 259 261 264 267 270 273 276 280 282 285 287 289 290 291 291 291 291 291 291 291 292 293 294 294 294 295 296 297 296 296 296 296 296 295 296 296 296 296 296 296 295 296 296 296 296 296 296 297 297 297 296 296 296 295 295 295 294 294 295 295 295 294 294 293 293 292 291 290 290 290 289 289 288 287 287 286 285 284
231 234 238 241 244 246 249 252 255 258 260 262 265 269 272 276 279 282 285 287 289 290 291 291 291 291 292 292 293 293 294 295 295 296 296 297 297 296 296 296 296 296 296 296 296 297 297 296 296 295 295 296 296 297 297 297 296 296 296 296 296 296 296 296 296 296 295 295 295 295 294 294 293 293 293 293 292 291 291 291 290 289 289 289 288 287 286 286
234 236 239 243 246 248 251 254 256 259 262 265 269 272 276 279 282 284 286 288 289 289 290 290 291 292 293 294 294 295 296 296 296 297 297 297 297 297 297 297 297 297 297 297 297 297 297 297 297 297 297 297 297 297 297 297 296 296 295 296 296 296 296 296 296 296 296 297 297 296 295 295 294 294 294 294 293 293 292 292 291 291 291 291 290 290 289 288
236 238 241 245 248 251 254 257 260 263 266 270 273 276 279 282 284 285 286 287 288 289 290 291 292 293 293 294 295 296 296 296 297 297 297 297 297 297 297 298 298 298 298 298 298 298 298 299 299 299 298 298 298 298 298 298 298 297 297 297 296 297 297 297 297 297 297 298 298 298 297 296 296 296 295 295 294 294 294 293 293 293 292 292 292 291 290 290
240 242 245 249 252 255 258 262 265 268 272 274 277 279 282 283 284 285 286 287 288 290 291 292 293 294 294 295 296 296 296 296 297 297 297 298 298 298 299 299 299 299 299 299 299 300 300 300 300 300 299 299 299 299 299 299 299 299 298 298 299 299 299 298 299 298 298 298 298 297 297 297 296 296 296 295 294 294 294 294 294 294 293 293 292 291 291 290
246 248 251 255 258 262 265 268 271 273 275 278 280 281 282 283 284 286 287 289 290 291 292 293 294 295 295 296 296 296 297 297 297 298 298 299 299 299 299 300 300 300 301 301 301 301 301 301 301 300 300 300 300 300 300 300 300 300 300 300 300 301 300 300 299 298 298 297 297 296 296 297 297 297 297 296 295 295 295 295 294 294 294 293 292 291 291 290
252 255 259 262 265 267 270 272 274 276 277 279 280 281 283 285 287 289 290 291 292 293 294 294 295 296 296 296 297 297 298 298 299 299 300 300 300 301 301 301 302 302 302 302 302 301 301 301 301 301 301 301 301 300 300 300 300 299 299 299 299 299 299 298 298 297 297 296 296 296 296 297 298 299 298 297 297 296 296 295 295 294 294 293 292 292 291 290
258 261 264 266 269 271 273 274 276 277 279 280 282 285 287 289 290 291 292 293 293 294 295 296 296 297 297 298 298 299 300 300 301 301 301 302 302 303 303 303 303 303 303 303 303 303 303 303 303 302 302 302 301 301 300 300 299 298 298 298 298 297 297 297 297 297 297 297 297 297 298 299 300 300 299 298 298 297 297 296 296 295 294 293 292 291 290 290
262 264 266 269 271 274 275 276 278 280 282 284 287 289 291 292 292 293 294 294 295 296 297 297 298 299 299 300 300 301 301 302 302 302 303 304 304 304 304 304 304 304 304 304 304 304 304 304 304 304 304 303 303 302 302 302 301 301 300 301 300 300 299 300 299 299 299 300 300 301 301 301 301 300 299 298 298 298 298 297 297 296 295 294 293 292 292 291
263 265 268 271 274 276 278 280 282 285 287 289 291 292 293 294 294 295 296 297 297 298 298 299 300 300 301 302 302 303 303 304 304 305 305 305 305 305 305 305 305 306 306 306 306 306 305 305 305 305 305 305 305 304 304 304 304 303 303 303 303 302 303 303 302 302 302 303 303 302 302 302 302 301 299 299 299 299 299 298 298 297 296 296 295 295 294 293
264 268 272 275 277 280 283 286 288 290 292 293 295 295 296 296 297 298 298 298 299 299 300 301 302 303 303 304 305 305 306 306 306 306 306 306 307 307 307 307 307 307 307 307 306 306 306 305 305 306 306 306 306 306 305 305 305 305 305 305 305 305 306 305 305 304 304 304 304 303 303 303 302 301 300 301 300 300 299 299 298 297 296 295 295 295 294 293
269 272 276 279 282 286 288 290 291 293 295 296 297 297 298 299 299 299 299 300 300 301 302 303 304 305 306 307 307 307 307 307 307 308 308 308 308 308 308 308 308 308 307 307 307 306 306 306 306 307 307 307 307 307 307 307 307 307 307 307 307 307 307 306 305 305 305 305 305 304 304 303 303 302 302 302 301 300 300 299 298 297 296 296 296 296 296 294
274 278 282 285 287 289 290 292 294 296 298 298 299 299 300 300 300 300 301 302 303 304 305 306 307 308 308 308 308 308 309 309 309 310 310 310 310 310 310 309 309 308 308 308 308 308 308 308 308 308 308 308 308 308 309 308 308 308 308 308 307 307 306 306 306 306 306 306 305 305 305 305 304 304 304 304 303 302 302 302 301 299 298 298 298 297 296 295
280 284 286 288 289 291 293 296 298 299 300 300 301 301 301 301 302 303 303 304 306 307 308 309 309 309 309 309 309 310 310 310 311 311 311 311 310 310 310 309 309 309 309 309 309 309 309 309 309 309 310 310 310 310 310 309 308 308 308 307 307 307 306 307 307 307 307 306 305 305 305 305 305 304 305 304 304 304 303 302 301 299 299 299 299 297 296 294
284 286 287 289 291 294 298 300 300 301 301 301 302 302 302 303 304 305 306 307 309 310 310 310 310 309 310 310 310 311 311 311 311 311 311 310 310 310 310 310 310 310 311 311 311 311 311 311 311 311 312 312 311 311 310 309 308 308 308 308 308 307 307 308 308 308 307 306 305 305 305 305 305 304 303 303 303 303 303 302 300 299 300 300 300 298 296 295
285 286 289 292 296 298 300 301 301 301 301 302 302 303 304 305 306 307 309 310 311 311 311 310 310 311 311 311 312 312 312 312 311 311 311 311 311 311 311 312 312 312 312 312 312 312 312 313 313 313 313 313 312 311 310 309 309 309 309 310 309 308 309 309 309 309 307 306 307 307 307 306 306 305 304 304 304 303 304 303 301 301 301 302 301 300 298 297